Ainsworth, NE

11:17 PM CST on November 20, 2019 (GMT -0600)
Ainsworth Municipal

Weather History for KANW - October, 2019

Change the Weather History Date:

Tuesday, October 22, 2019

  Actual Average Record
Temperature  
Mean Temperature 44 °F -  
Max Temperature 57 °F 56 °F 84 °F (2003)
Min Temperature 33 °F 34 °F 19 °F (1996)
Degree Days  
Heating Degree Days 20    
Moisture  
Dew Point 31 °F    
Average Humidity 63    
Maximum Humidity 94    
Minimum Humidity 28    
Precipitation  
Precipitation 0.00 in - - ()
Sea Level Pressure  
Sea Level Pressure 29.91 in    
Wind  
Wind Speed 11 mph ()    
Max Wind Speed 22 mph    
Max Gust Speed 31 mph    
Visibility 10.0 miles    
Events Rain    
Averages and records for this station are not official NWS values.
T = Trace of Precipitation, MM = Missing Value Source: Averaged Metar Reports

Daily Weather History Graph

Daily Weather History Graph

Search for Another Location

Airport or City:

Astronomy

Oct. 22, 2019 Rise Set
Actual Time 8:01 AM CDT 6:47 PM CDT
Civil Twilight 7:32 AM CDT 7:15 PM CDT
Nautical Twilight 6:59 AM CDT 7:48 PM CDT
Astronomical Twilight 6:26 AM CDT 8:21 PM CDT
Moon 1:02 AM CDT (10/22) 4:07 PM CDT (10/22)
Length of Visible Light 11h 43m
Length of Day
10h 45m
Last Quarter, 37% of the Moon is Illuminated
Oct 22
Last Quarter
Oct 27
New
Nov 4
First Quarter
Nov 12
Full
Nov 19
Last Quarter

Hourly Weather History & Observations

Time (CDT) Temp. Windchill Dew Point Humidity Pressure Visibility Wind Dir Wind Speed Gust Speed Precip Events Conditions
12:15 AM 39.6 °F 31.3 °F 28.9 °F 66% 29.92 in 10.0 mi NW 15.0 mph 18.4 mph N/A   Mostly Cloudy
12:35 AM 39.2 °F 30.8 °F 29.1 °F 67% 29.92 in 10.0 mi NW 15.0 mph 21.9 mph N/A   Scattered Clouds
12:55 AM 38.7 °F 30.1 °F 29.7 °F 70% 29.93 in 10.0 mi NW 15.0 mph 19.6 mph N/A   Scattered Clouds
1:15 AM 37.6 °F 30.0 °F 29.8 °F 74% 29.93 in 10.0 mi NW 11.5 mph 17.3 mph N/A   Scattered Clouds
1:35 AM 37.4 °F 29.8 °F 30.0 °F 75% 29.94 in 10.0 mi NW 11.5 mph - N/A   Clear
1:55 AM 36.1 °F 28.7 °F 30.0 °F 78% 29.94 in 10.0 mi NW 10.4 mph - N/A   Clear
2:15 AM 35.6 °F 28.6 °F 30.2 °F 81% 29.95 in 10.0 mi WNW 9.2 mph - N/A   Clear
2:35 AM 35.6 °F 28.0 °F 30.6 °F 82% 29.95 in 10.0 mi WNW 10.4 mph - N/A   Clear
2:55 AM 34.9 °F 27.1 °F 30.6 °F 84% 29.95 in 10.0 mi WNW 10.4 mph - N/A   Clear
3:15 AM 34.9 °F 26.6 °F 30.6 °F 84% 29.95 in 10.0 mi WNW 11.5 mph - N/A   Clear
3:35 AM 34.9 °F 26.6 °F 30.0 °F 82% 29.95 in 10.0 mi WNW 11.5 mph - N/A   Clear
3:55 AM 34.3 °F 26.5 °F 30.2 °F 85% 29.96 in 10.0 mi WNW 10.4 mph - N/A   Clear
4:15 AM 33.8 °F 26.4 °F 30.9 °F 89% 29.96 in 10.0 mi WNW 9.2 mph - N/A   Clear
4:35 AM 33.8 °F 27.0 °F 31.1 °F 90% 29.96 in 10.0 mi WNW 8.1 mph - N/A   Scattered Clouds
4:55 AM 34.2 °F 28.2 °F 32.0 °F 92% 29.96 in 10.0 mi WNW 6.9 mph - N/A   Mostly Cloudy
5:15 AM 34.9 °F 29.0 °F 31.8 °F 89% 29.97 in 10.0 mi WNW 6.9 mph - N/A   Mostly Cloudy
5:35 AM 36.5 °F 29.7 °F 31.6 °F 83% 29.97 in 10.0 mi WNW 9.2 mph - N/A   Overcast
5:55 AM 37.0 °F 29.8 °F 31.5 °F 80% 29.97 in 10.0 mi WNW 10.4 mph - N/A   Overcast
6:15 AM 36.9 °F 29.6 °F 31.3 °F 80% 29.97 in 10.0 mi WNW 10.4 mph - N/A   Mostly Cloudy
6:35 AM 36.1 °F 29.3 °F 30.9 °F 81% 29.97 in 10.0 mi WNW 9.2 mph - N/A   Scattered Clouds
6:55 AM 34.9 °F 27.7 °F 31.6 °F 88% 29.97 in 10.0 mi WNW 9.2 mph - N/A   Mostly Cloudy
7:15 AM 34.9 °F 27.7 °F 32.2 °F 90% 29.97 in 10.0 mi West 9.2 mph - N/A   Overcast
7:35 AM 34.5 °F 28.6 °F 32.4 °F 92% 29.97 in 10.0 mi West 6.9 mph - N/A   Overcast
7:55 AM 35.6 °F 28.6 °F 32.7 °F 89% 29.97 in 10.0 mi West 9.2 mph - N/A   Overcast
8:15 AM 36.1 °F 29.3 °F 32.2 °F 86% 29.97 in 10.0 mi West 9.2 mph - N/A   Overcast
8:35 AM 36.9 °F 30.1 °F 32.0 °F 83% 29.98 in 10.0 mi West 9.2 mph - N/A   Overcast
8:55 AM 37.8 °F 30.7 °F 32.0 °F 80% 29.98 in 10.0 mi West 10.4 mph - N/A   Overcast
9:15 AM 38.3 °F 33.2 °F 32.0 °F 78% 29.98 in 10.0 mi West 6.9 mph - N/A   Overcast
9:35 AM 39.2 °F 32.5 °F 32.0 °F 75% 29.98 in 10.0 mi West 10.4 mph - N/A   Mostly Cloudy
9:55 AM 41.5 °F 35.0 °F 32.2 °F 69% 29.99 in 10.0 mi West 11.5 mph - N/A   Mostly Cloudy
10:15 AM 43.3 °F 37.2 °F 32.2 °F 65% 29.98 in 10.0 mi West 11.5 mph - N/A   Overcast
10:35 AM 43.9 °F 38.3 °F 32.0 °F 63% 29.98 in 10.0 mi West 10.4 mph - N/A   Overcast
10:55 AM 44.2 °F 39.2 °F 32.0 °F 62% 29.98 in 10.0 mi West 9.2 mph - N/A   Overcast
11:15 AM 46.6 °F - 32.7 °F 59% 29.97 in 10.0 mi WNW 11.5 mph - N/A   Mostly Cloudy
11:35 AM 50.0 °F - 32.0 °F 50% 29.97 in 10.0 mi NW 16.1 mph 23.0 mph N/A   Scattered Clouds
11:55 AM 50.9 °F - 31.8 °F 48% 29.96 in 10.0 mi WNW 20.7 mph 26.5 mph N/A   Mostly Cloudy
12:15 PM 51.4 °F - 30.9 °F 45% 29.96 in 10.0 mi WNW 19.6 mph 25.3 mph N/A   Mostly Cloudy
12:35 PM 50.4 °F - 30.2 °F 46% 29.95 in 10.0 mi WNW 20.7 mph 26.5 mph N/A   Mostly Cloudy
12:55 PM 53.1 °F - 30.6 °F 42% 29.94 in 10.0 mi WNW 17.3 mph 25.3 mph N/A   Scattered Clouds
1:15 PM 53.6 °F - 29.5 °F 40% 29.92 in 10.0 mi WNW 20.7 mph 27.6 mph N/A   Scattered Clouds
1:35 PM 53.6 °F - 28.6 °F 38% 29.92 in 10.0 mi NW 19.6 mph 25.3 mph N/A   Scattered Clouds
1:55 PM 54.7 °F - 28.4 °F 36% 29.91 in 10.0 mi WNW 19.6 mph 28.8 mph N/A   Scattered Clouds
2:15 PM 55.4 °F - 26.2 °F 33% 29.91 in 10.0 mi WNW 16.1 mph 25.3 mph N/A   Scattered Clouds
2:35 PM 55.0 °F - 24.4 °F 31% 29.90 in 10.0 mi NW 19.6 mph 29.9 mph N/A   Mostly Cloudy
2:55 PM 55.2 °F - 24.4 °F 30% 29.89 in 10.0 mi WNW 17.3 mph 24.2 mph N/A   Scattered Clouds
3:15 PM 56.3 °F - 23.9 °F 29% 29.88 in 10.0 mi WNW 19.6 mph 26.5 mph N/A   Mostly Cloudy
3:35 PM 56.3 °F - 24.8 °F 30% 29.88 in 10.0 mi WNW 21.9 mph 28.8 mph N/A   Mostly Cloudy
3:55 PM 56.3 °F - 23.9 °F 29% 29.88 in 10.0 mi NW 16.1 mph 27.6 mph N/A   Scattered Clouds
4:15 PM 56.5 °F - 23.2 °F 28% 29.88 in 10.0 mi WNW 20.7 mph 31.1 mph N/A   Clear
4:35 PM 56.3 °F - 24.4 °F 29% 29.87 in 10.0 mi WNW 16.1 mph 24.2 mph N/A   Clear
4:55 PM 56.3 °F - 24.3 °F 29% 29.87 in 10.0 mi NW 17.3 mph 23.0 mph N/A   Clear
5:15 PM 56.3 °F - 25.2 °F 30% 29.87 in 10.0 mi NW 10.4 mph 21.9 mph N/A   Clear
5:35 PM 55.8 °F - 25.5 °F 31% 29.87 in 10.0 mi WNW 11.5 mph 20.7 mph N/A   Clear
5:55 PM 54.7 °F - 26.2 °F 33% 29.86 in 10.0 mi WNW 11.5 mph - N/A   Clear
6:15 PM 53.4 °F - 27.9 °F 37% 29.85 in 10.0 mi WNW 5.8 mph - N/A   Clear
6:35 PM 51.8 °F - 28.4 °F 41% 29.85 in 10.0 mi WNW 3.5 mph - N/A   Clear
6:55 PM 50.0 °F - 29.7 °F 46% 29.84 in 10.0 mi Calm Calm - N/A   Mostly Cloudy
7:15 PM 49.1 °F - 30.2 °F 48% 29.84 in 10.0 mi West 3.5 mph - N/A   Overcast
7:35 PM 46.9 °F - 32.4 °F 57% 29.84 in 10.0 mi WSW 4.6 mph - N/A   Overcast
7:55 PM 47.7 °F - 32.0 °F 55% 29.84 in 10.0 mi WSW 3.5 mph - N/A   Overcast
8:15 PM 47.7 °F - 32.0 °F 55% 29.83 in 10.0 mi SW 4.6 mph - N/A   Overcast
8:35 PM 47.3 °F - 33.8 °F 59% 29.84 in 10.0 mi WSW 8.1 mph - N/A   Overcast
8:55 PM 49.5 °F - 32.2 °F 51% 29.84 in 10.0 mi WSW 6.9 mph - N/A   Overcast
9:15 PM 50.4 °F - 32.4 °F 50% 29.83 in 10.0 mi West 6.9 mph - N/A   Overcast
9:35 PM 49.5 °F - 33.8 °F 55% 29.83 in 10.0 mi West 5.8 mph - N/A   Overcast
9:55 PM 49.1 °F - 35.6 °F 60% 29.83 in 10.0 mi WSW 5.8 mph - N/A   Overcast
10:15 PM 48.2 °F - 37.9 °F 68% 29.83 in 10.0 mi WSW 6.9 mph - N/A Rain Light Rain
10:35 PM 46.8 °F - 39.7 °F 77% 29.83 in 10.0 mi WSW 4.6 mph - N/A   Light Drizzle
10:55 PM 45.9 °F 44.6 °F 40.3 °F 81% 29.81 in 10.0 mi SSW 3.5 mph - N/A Rain Light Rain
11:15 PM 44.2 °F 41.0 °F 42.6 °F 94% 29.81 in 10.0 mi SSW 5.8 mph - N/A   Overcast
11:35 PM 45.3 °F 44.0 °F 42.4 °F 90% 29.80 in 10.0 mi SSW 3.5 mph - N/A   Overcast
11:55 PM 45.5 °F 41.8 °F 42.1 °F 88% 29.79 in 10.0 mi SSW 6.9 mph - N/A   Overcast